星链-30893 (STARLINK-30893 )

导读 | 星芒AI

STARLINK-30893 是 SpaceX Starlink 卫星互联网项目中的一颗低轨卫星,属于第三代星链卫星(v1.5 或 v2 版本)。它于2023年发射,部署在约550公里高度的近地轨道,旨在为全球用户提供高速、低延迟的互联网服务。该卫星采用先进推进系统和激光通信技术,支持更高效的网络连接与星座间数据传输。作为星链计划的重要组成部分,STARLINK-30893 有助于扩大覆盖范围,提升网络性能,并推动偏远地区的数字接入。

基本信息
目录编号:
58724
目录名称:
STARLINK-30893
国际标识:
2024-002V
轨道中心:
EARTH
卫星名称:
星链-30893
卫星全名:
星链-30893 (STARLINK-30893 )
卫星状态:
在轨 (已飞行667 天)
发射日期:
2024-01-03 UTC
国别 :
美国 (US)
星等 :
--
轨道信息
数据来源 国际轨道数据 AOE轨道数据
星历时间 2025-10-31T04:29:34+0800
16小时前
查看轨道信息
2025-10-31T00:00:00+0800
21小时前
查看轨道信息
半长轴 6853.378km 6853.366km
偏心率 0.0001358 0.0001537
轨道倾角 53.160° 53.159°
近地点辐角 87.776° 111.233°
升交点赤经 113.243° 114.112°
平近点角 272.340° 297.105°
近地点 474.312km 474.177km
远地点 476.174km 476.285km
周期 94.106分钟 94.106分钟
每日圈数 15.301915 15.301954
详细信息
固有亮度:
5
最大亮度:
0.3
卫星平台:
Starlink v2.0 mini
覆盖范围:
全球
运营商:
太空探索技术公司
运营商所在国:
美国
制造商(研发单位):
太空探索技术公司
制造商所在国:
美国
使用方式:
暂无
卫星简介
星链(Starlink)计划是由太空探索技术公司(SpaceX)提出的一个巨型低轨卫星互联网星座项目,计划在2019年至2024年间在太空搭建由约1.2万颗卫星组成的“星链”网络,其中1584颗将部署在地球上空550千米处的近地轨道,并从2020年开始工作。该卫星仍在工作。
2D轨道图
3D轨道图
轨道高度分析图
轨道倾角分析图
轨道综合分析图
查看轨道综合分析图